| time (UTC) | temp F | wind direction | speed MPH | gust MPH | rain 1hr in | rain 24hr in | rain mn in | humidity % | barometer mb |
| 20260507081542 | 47 | 323 | 0.0 | 0.0 | 0.00 | 0.00 | 0.00 | 79 | 1017.5 |
| 20260507080029 | 47 | 325 | 0.0 | 0.0 | 0.00 | 0.00 | 0.00 | 77 | 1017.4 |
| 20260507074531 | 47 | 323 | 0.0 | 0.0 | 0.00 | 0.00 | 0.00 | 78 | 1017.6 |
| 20260507073027 | 47 | 325 | 0.0 | 0.0 | 0.00 | 0.00 | 0.00 | 76 | 1017.5 |
| 20260507071526 | 47 | 325 | 0.0 | 0.0 | 0.00 | 0.00 | 0.00 | 79 | 1017.5 |
| 20260507070024 | 47 | 325 | 0.0 | 0.0 | 0.00 | 0.00 | 0.00 | 78 | 1017.3 |
| 20260507064526 | 47 | 325 | 0.0 | 0.0 | 0.00 | 0.00 | 0.00 | 78 | 1017.6 |
| 20260507063120 | 48 | 325 | 0.0 | 0.0 | 0.00 | 0.00 | 0.00 | 77 | 1017.6 |
| 20260507061529 | 48 | 325 | 0.0 | 0.0 | 0.00 | 0.00 | 0.00 | 77 | 1017.7 |
| 20260507060028 | 48 | 323 | 0.0 | 0.0 | 0.00 | 0.00 | 0.00 | 77 | 1017.5 |
| 20260507054515 | 49 | 322 | 0.0 | 0.0 | 0.00 | 0.00 | 0.00 | 76 | 1017.4 |
| 20260507053016 | 49 | 325 | 0.0 | 0.0 | 0.00 | 0.00 | 0.00 | 77 | 1017.3 |
| 20260507051512 | 49 | 329 | 0.0 | 0.0 | 0.00 | 0.00 | 0.00 | 76 | 1017.2 |
| 20260507050018 | 49 | 319 | 0.0 | 0.0 | 0.00 | 0.00 | 0.00 | 77 | 1017.4 |
| 20260507044521 | 49 | 319 | 0.0 | 0.0 | 0.00 | 0.00 | 0.00 | 75 | 1017.3 |
| 20260507043007 | 49 | 319 | 0.0 | 0.0 | 0.00 | 0.00 | 0.00 | 75 | 1017.1 |
| 20260507041507 | 49 | 319 | 0.0 | 0.0 | 0.00 | 0.00 | 0.00 | 77 | 1017.3 |
| 20260507040007 | 49 | 314 | 0.0 | 0.0 | 0.00 | 0.00 | 0.00 | 78 | 1017.3 |
| 20260507034507 | 49 | 313 | 0.0 | 0.0 | 0.00 | 0.00 | 0.00 | 77 | 1017.4 |
| 20260507033009 | 50 | 322 | 0.0 | 0.0 | 0.00 | 0.00 | 0.00 | 77 | 1017.0 |
| 20260507031505 | 50 | 321 | 0.0 | 0.0 | 0.00 | 0.00 | 0.00 | 75 | 1016.7 |
| 20260507030005 | 51 | 20 | 0.0 | 0.0 | 0.00 | 0.00 | 0.00 | 76 | 1016.6 |
| 20260507024506 | 51 | 20 | 0.0 | 0.0 | 0.00 | 0.00 | 0.00 | 74 | 1016.5 |
| 20260507023004 | 52 | 20 | 0.0 | 0.0 | 0.00 | 0.00 | 0.00 | 71 | 1016.4 |
| 20260507021503 | 53 | 20 | 0.0 | 0.0 | 0.00 | 0.00 | 0.00 | 70 | 1016.3 |
| 20260507020004 | 54 | 20 | 0.0 | 0.0 | 0.00 | 0.00 | 0.00 | 67 | 1016.2 |
| 20260507014503 | 55 | 20 | 0.0 | 0.0 | 0.00 | 0.00 | 0.00 | 65 | 1016.0 |
| 20260507013002 | 56 | 20 | 0.0 | 0.0 | 0.00 | 0.00 | 0.00 | 62 | 1015.9 |
| 20260507011502 | 58 | 20 | 0.0 | 0.0 | 0.00 | 0.00 | 0.00 | 57 | 1015.7 |
| 20260507010002 | 59 | 16 | 2.0 | 5.0 | 0.00 | 0.00 | 0.00 | 56 | 1015.5 |
| 20260507004501 | 60 | 34 | 1.0 | 6.0 | 0.00 | 0.00 | 0.00 | 55 | 1015.4 |
| 20260507003101 | 60 | 13 | 4.0 | 8.0 | 0.00 | 0.00 | 0.00 | 54 | 1015.3 |
| 20260507001606 | 60 | 18 | 4.0 | 10.0 | 0.00 | 0.00 | 0.00 | 54 | 1015.2 |
| 20260507000100 | 61 | 16 | 4.0 | 10.0 | 0.00 | 0.00 | 0.00 | 55 | 1015.1 |
| 20260506234559 | 61 | 9 | 4.0 | 11.0 | 0.00 | 0.00 | 0.00 | 54 | 1015.0 |
| 20260506233059 | 63 | 19 | 4.0 | 10.0 | 0.00 | 0.00 | 0.00 | 51 | 1014.7 |
| 20260506231557 | 63 | 5 | 2.0 | 9.0 | 0.00 | 0.00 | 0.00 | 52 | 1014.5 |
| 20260506230103 | 62 | 19 | 6.0 | 12.0 | 0.00 | 0.00 | 0.00 | 49 | 1014.3 |
| 20260506224558 | 63 | 36 | 6.0 | 12.0 | 0.00 | 0.00 | 0.00 | 51 | 1014.3 |
| 20260506223055 | 63 | 34 | 7.0 | 14.0 | 0.00 | 0.00 | 0.00 | 52 | 1014.1 |
| 20260506221556 | 63 | 61 | 7.0 | 17.0 | 0.00 | 0.00 | 0.00 | 52 | 1014.0 |
| 20260506220054 | 63 | 26 | 9.0 | 17.0 | 0.00 | 0.00 | 0.00 | 50 | 1014.0 |
| 20260506214553 | 63 | 71 | 6.0 | 19.0 | 0.00 | 0.00 | 0.00 | 52 | 1014.2 |
| 20260506213052 | 63 | 19 | 8.0 | 16.0 | 0.00 | 0.00 | 0.00 | 52 | 1014.2 |
| 20260506211552 | 63 | 44 | 6.0 | 14.0 | 0.00 | 0.00 | 0.00 | 53 | 1014.2 |
| 20260506210052 | 64 | 5 | 7.0 | 17.0 | 0.00 | 0.00 | 0.00 | 54 | 1014.4 |
| 20260506204547 | 63 | 16 | 6.0 | 11.0 | 0.00 | 0.00 | 0.00 | 54 | 1014.6 |
| 20260506203051 | 63 | 25 | 5.0 | 16.0 | 0.00 | 0.00 | 0.00 | 54 | 1014.7 |
| 20260506201604 | 63 | 355 | 7.0 | 15.0 | 0.00 | 0.00 | 0.00 | 55 | 1014.8 |
| 20260506200042 | 63 | 38 | 6.0 | 14.0 | 0.00 | 0.00 | 0.00 | 55 | 1014.9 |
| 20260506194549 | 61 | 335 | 4.0 | 12.0 | 0.00 | 0.00 | 0.00 | 57 | 1015.1 |
| 20260506193044 | 62 | 51 | 6.0 | 14.0 | 0.00 | 0.00 | 0.00 | 55 | 1015.4 |
| 20260506191542 | 62 | 62 | 5.0 | 12.0 | 0.00 | 0.00 | 0.00 | 56 | 1015.5 |
| 20260506190038 | 62 | 81 | 5.0 | 16.0 | 0.00 | 0.00 | 0.00 | 56 | 1015.6 |
| 20260506184547 | 61 | 86 | 6.0 | 15.0 | 0.00 | 0.00 | 0.00 | 56 | 1015.7 |
| 20260506183039 | 61 | 49 | 9.0 | 16.0 | 0.00 | 0.00 | 0.00 | 56 | 1015.9 |
| 20260506181532 | 62 | 71 | 6.0 | 13.0 | 0.00 | 0.00 | 0.00 | 58 | 1016.1 |
| 20260506180029 | 61 | 5 | 5.0 | 15.0 | 0.00 | 0.00 | 0.00 | 59 | 1016.2 |
| 20260506174526 | 60 | 38 | 8.0 | 14.0 | 0.00 | 0.00 | 0.00 | 56 | 1016.5 |
| 20260506173022 | 60 | 96 | 7.0 | 16.0 | 0.00 | 0.00 | 0.00 | 57 | 1016.8 |
| 20260506171518 | 59 | 81 | 6.0 | 13.0 | 0.00 | 0.00 | 0.00 | 57 | 1017.1 |
| 20260506170016 | 58 | 102 | 8.0 | 17.0 | 0.00 | 0.00 | 0.00 | 57 | 1017.2 |
| 20260506164512 | 58 | 71 | 9.0 | 19.0 | 0.00 | 0.00 | 0.00 | 59 | 1017.3 |
| 20260506163017 | 58 | 86 | 6.0 | 15.0 | 0.00 | 0.00 | 0.00 | 61 | 1017.3 |
| 20260506161505 | 57 | 66 | 9.0 | 15.0 | 0.00 | 0.00 | 0.00 | 61 | 1017.1 |
| 20260506160007 | 57 | 12 | 9.0 | 15.0 | 0.00 | 0.00 | 0.00 | 63 | 1016.9 |
| 20260506154607 | 56 | 30 | 5.0 | 15.0 | 0.00 | 0.00 | 0.00 | 67 | 1016.7 |
| 20260506153055 | 57 | 56 | 7.0 | 14.0 | 0.00 | 0.00 | 0.00 | 67 | 1016.1 |
| 20260506151552 | 56 | 16 | 5.0 | 18.0 | 0.00 | 0.00 | 0.00 | 71 | 1016.1 |
| 20260506150048 | 55 | 10 | 4.0 | 13.0 | 0.00 | 0.00 | 0.00 | 73 | 1015.8 |
| 20260506144545 | 54 | 51 | 7.0 | 14.0 | 0.00 | 0.00 | 0.00 | 74 | 1015.8 |
| 20260506143039 | 53 | 355 | 4.0 | 12.0 | 0.00 | 0.00 | 0.00 | 75 | 1015.8 |
| 20260506141536 | 52 | 346 | 3.0 | 10.0 | 0.00 | 0.00 | 0.00 | 78 | 1016.1 |
| 20260506140038 | 51 | 76 | 4.0 | 11.0 | 0.00 | 0.00 | 0.00 | 78 | 1015.8 |
| 20260506134530 | 50 | 74 | 5.0 | 10.0 | 0.00 | 0.00 | 0.00 | 80 | 1016.0 |
| 20260506133028 | 50 | 36 | 5.0 | 10.0 | 0.00 | 0.00 | 0.00 | 81 | 1015.7 |
| 20260506131526 | 49 | 51 | 5.0 | 11.0 | 0.00 | 0.00 | 0.00 | 82 | 1016.0 |
| 20260506130028 | 49 | 54 | 5.0 | 10.0 | 0.00 | 0.00 | 0.00 | 83 | 1016.2 |
| 20260506124522 | 48 | 58 | 5.0 | 12.0 | 0.00 | 0.00 | 0.00 | 85 | 1015.9 |
| 20260506123021 | 48 | 69 | 4.0 | 10.0 | 0.00 | 0.00 | 0.00 | 86 | 1015.6 |
| 20260506121519 | 48 | 17 | 4.0 | 11.0 | 0.00 | 0.00 | 0.00 | 86 | 1015.7 |
| 20260506120022 | 47 | 5 | 4.0 | 10.0 | 0.00 | 0.00 | 0.00 | 87 | 1015.3 |
| 20260506114518 | 47 | 53 | 4.0 | 10.0 | 0.00 | 0.00 | 0.00 | 87 | 1015.4 |
| 20260506113018 | 47 | 26 | 2.0 | 9.0 | 0.00 | 0.00 | 0.00 | 87 | 1015.7 |
| 20260506111516 | 47 | 19 | 3.0 | 10.0 | 0.00 | 0.00 | 0.00 | 87 | 1015.5 |
| 20260506110013 | 47 | 5 | 4.0 | 12.0 | 0.00 | 0.00 | 0.00 | 86 | 1015.4 |
| 20260506104511 | 47 | 343 | 4.0 | 9.0 | 0.00 | 0.00 | 0.00 | 86 | 1015.3 |
| 20260506103013 | 47 | 323 | 4.0 | 11.0 | 0.00 | 0.00 | 0.00 | 86 | 1014.8 |
| 20260506101506 | 47 | 328 | 4.0 | 10.0 | 0.00 | 0.00 | 0.00 | 85 | 1014.5 |
| 20260506100004 | 47 | 28 | 5.0 | 11.0 | 0.00 | 0.00 | 0.00 | 85 | 1014.2 |
| 20260506094503 | 47 | 346 | 6.0 | 12.0 | 0.00 | 0.00 | 0.00 | 85 | 1014.1 |
| 20260506093003 | 47 | 343 | 5.0 | 13.0 | 0.00 | 0.00 | 0.00 | 85 | 1014.1 |
| 20260506091558 | 47 | 355 | 6.0 | 12.0 | 0.00 | 0.00 | 0.00 | 85 | 1013.5 |
| 20260506084556 | 47 | 10 | 4.0 | 8.0 | 0.00 | 0.00 | 0.00 | 85 | 1013.1 |
| 20260506083052 | 47 | 360 | 4.0 | 9.0 | 0.00 | 0.00 | 0.00 | 84 | 1012.8 |